Theta_e
284 286 286 284 284 284 283 284 281 285 284 288 292 295 297 302 304 304 304 306 307 308 307 310 311 312 313 312 311 311 310 308 306 305 306 306 305 306 307 308 309 310 310 310
280 284 285 283 285 285 284 284 284 285 285 293 296 297 297 300 303 304 304 306 308 308 308 309 311 312 312 311 309 310 308 305 305 305 305 306 305 304 305 306 307 309 310 310
276 281 280 276 282 284 285 286 286 283 289 293 293 296 297 298 302 304 305 306 307 308 308 310 311 312 311 310 309 308 306 304 304 304 303 303 304 303 303 303 305 307 309 310
276 277 269 280 284 285 286 287 288 289 290 294 296 298 299 299 299 302 305 307 308 309 309 311 312 312 312 310 308 306 305 304 304 303 302 302 302 301 301 302 302 303 304 306
275 274 276 280 282 281 282 284 290 289 292 293 294 297 296 298 299 299 300 303 309 311 311 311 311 312 310 309 307 306 304 303 303 302 301 300 299 298 300 301 301 302 303 303
273 271 270 278 285 288 287 282 290 289 289 289 292 291 294 298 299 299 301 304 309 310 311 311 311 311 309 308 307 306 304 303 303 302 301 298 298 297 297 299 299 301 301 303
275 273 276 282 284 288 277 281 290 290 289 289 288 292 296 299 298 300 301 307 310 310 309 310 311 310 309 308 307 307 305 303 302 301 298 298 298 298 299 298 298 298 298 300
276 275 272 285 286 280 285 288 290 290 290 290 292 294 296 297 298 299 300 307 309 308 309 310 310 310 308 308 309 307 304 302 300 298 297 298 297 296 296 297 296 296 296 297
279 279 285 285 287 289 289 288 288 289 291 292 293 294 296 297 298 299 300 306 308 308 308 309 310 310 308 309 307 305 303 300 299 297 297 297 296 294 294 295 295 294 294 295
281 284 284 286 289 289 290 289 290 291 292 294 293 295 295 297 299 300 301 306 308 307 307 307 309 309 309 309 307 305 301 299 296 295 295 295 296 296 294 294 293 293 293 293
280 282 284 286 287 289 289 290 290 292 292 294 294 294 295 296 298 300 301 306 308 307 306 307 309 308 309 308 306 304 301 298 296 297 295 295 295 295 294 294 295 293 293 294
279 283 284 286 288 289 288 288 289 289 291 292 294 294 295 296 299 300 300 306 307 307 307 307 308 308 308 308 307 303 299 297 296 295 294 294 294 293 294 294 295 294 295 295
285 286 286 287 287 288 287 289 289 289 289 289 293 294 296 297 298 300 302 304 307 306 307 307 308 307 307 307 306 303 300 298 297 295 294 293 292 292 291 295 296 296 297 297
288 286 285 286 286 288 289 290 291 290 291 293 294 295 295 295 296 299 300 302 308 307 307 307 307 306 306 306 305 304 302 301 297 295 295 294 293 293 293 293 293 294 297 297
285 286 287 288 287 287 288 288 287 288 290 291 293 293 294 296 299 300 301 304 308 307 307 307 306 305 306 306 304 302 301 299 297 296 295 294 293 292 293 293 293 294 295 297
286 286 286 285 286 287 287 287 288 289 289 290 292 293 296 299 300 301 302 307 306 305 306 307 306 306 305 305 304 302 301 299 298 296 295 293 292 292 292 292 292 293 295 295
284 284 284 284 286 287 287 287 288 288 289 291 292 296 298 299 300 300 302 308 308 307 307 308 307 306 305 305 303 302 300 298 298 296 295 294 293 292 292 292 292 292 294 294
288 288 289 288 288 287 288 288 289 290 291 293 296 298 298 298 298 300 304 308 308 307 307 308 307 305 305 304 304 301 300 298 297 296 294 293 293 293 292 292 291 291 292 294
291 289 289 289 289 289 289 290 290 292 293 297 300 299 300 300 301 305 307 307 305 304 306 308 303 304 304 303 302 301 299 297 296 295 295 294 293 292 292 291 291 291 291 293
292 292 292 291 290 290 290 291 292 293 295 300 300 300 300 299 303 305 306 305 306 307 307 304 304 304 302 303 302 300 298 297 296 294 294 293 292 292 291 291 291 290 291 292
293 293 292 291 290 290 290 292 292 292 295 299 298 300 298 301 305 305 304 304 305 305 303 302 304 302 302 301 300 299 298 297 295 294 294 293 292 291 291 291 290 290 290 292
292 292 292 291 290 290 291 291 292 294 296 297 300 298 297 300 304 304 306 305 303 301 301 303 302 301 301 301 300 298 297 296 295 295 294 293 292 291 291 290 290 290 290 291
290 291 292 292 290 291 291 292 293 294 297 299 299 297 298 302 305 303 302 303 303 301 302 302 301 301 301 300 298 297 296 295 294 294 293 293 292 292 291 290 290 289 290 290
288 290 292 293 292 291 290 291 292 295 299 299 299 298 300 300 301 305 306 303 301 300 301 301 300 301 301 299 298 297 296 295 294 294 293 293 292 292 291 290 289 290 290 290
285 288 291 292 291 290 290 291 291 293 295 298 299 300 299 301 302 302 304 304 300 301 301 301 301 301 299 298 297 296 296 295 294 293 293 292 291 291 291 290 290 289 290 290
284 287 289 290 291 291 290 291 290 291 294 296 298 298 299 300 300 302 304 302 302 301 300 300 300 300 298 298 297 296 296 295 294 293 293 292 292 291 290 290 290 290 290 290
285 290 289 290 290 291 291 292 290 290 292 295 297 298 299 298 299 301 302 302 302 301 300 300 300 299 298 297 297 296 296 295 294 294 293 292 292 291 290 290 291 290 289 289
Wind_Speed
13 14 4 5 12 6 7 5 4 2 9 15 13 11 10 6 7 10 12 14 16 14 12 11 10 9 8 8 7 7 8 7 7 5 6 7 6 6 6 6 6 7 9 9
15 14 14 15 16 14 13 16 11 11 17 9 11 3 5 8 5 9 12 14 16 15 15 14 12 11 9 9 8 7 9 8 6 7 7 8 8 8 7 7 7 8 9 9
9 9 6 10 15 18 12 11 10 12 12 16 11 8 7 8 9 11 12 13 16 18 16 15 14 13 12 11 9 8 9 8 7 8 7 8 9 9 9 8 8 9 10 10
5 3 7 4 4 6 12 12 9 8 10 15 9 7 9 4 6 6 7 11 15 14 16 15 14 13 12 12 10 9 10 9 8 8 8 9 10 10 9 8 9 9 10 11
5 7 5 10 8 1 4 3 10 12 9 8 11 4 3 7 7 8 10 11 12 15 16 15 15 15 14 13 11 10 11 10 9 9 9 9 10 10 8 9 9 9 10 11
4 5 8 5 4 2 2 6 2 7 4 2 12 2 2 12 14 13 13 9 10 14 16 17 16 16 16 14 12 12 11 10 9 8 9 10 10 9 6 9 8 8 11 12
6 3 5 13 4 1 5 4 4 3 2 4 3 5 12 12 13 12 12 9 9 14 15 16 17 16 15 15 14 11 11 11 10 9 10 11 10 10 10 10 11 11 12 10
5 3 11 5 3 5 4 3 5 3 2 4 6 8 9 11 10 11 12 3 10 12 14 15 17 16 15 15 13 13 13 12 11 10 9 8 13 10 10 11 11 10 11 9
7 8 3 3 3 3 4 1 1 2 6 6 6 6 8 10 10 9 10 6 9 11 13 15 16 16 16 13 15 14 14 13 12 10 11 10 12 11 9 9 9 8 8 8
2 9 9 7 3 3 5 5 3 4 5 9 8 7 9 10 10 8 8 6 9 12 13 13 14 14 14 15 16 16 15 13 12 11 12 10 8 8 8 8 8 8 8 8
7 4 4 5 6 7 10 4 4 5 6 9 10 10 8 10 10 9 8 5 9 11 14 15 15 14 15 16 16 14 14 13 12 10 11 10 8 8 7 6 7 9 7 8
11 6 6 10 9 4 7 8 6 6 7 9 11 13 9 9 10 7 9 4 9 11 13 16 16 15 15 17 17 16 14 11 10 9 9 9 9 7 6 8 10 9 13 10
12 5 6 9 6 7 12 15 15 8 9 15 13 12 12 10 10 11 11 5 10 13 14 15 16 16 16 17 17 16 15 13 10 12 9 9 9 9 9 8 12 13 15 13
9 4 8 13 14 6 15 16 16 12 11 13 12 11 10 12 13 11 11 8 9 12 14 17 16 17 16 17 16 16 15 19 11 10 9 9 9 8 8 9 9 8 11 11
15 12 19 20 12 11 12 12 13 13 11 13 11 9 12 11 16 12 11 7 10 13 15 16 17 17 16 17 16 16 14 11 11 10 9 10 8 8 8 9 8 8 7 8
11 13 17 18 17 16 14 13 13 14 10 13 14 11 13 12 12 14 13 8 13 15 17 17 17 17 17 17 16 14 13 20 15 10 10 9 9 9 8 8 9 8 8 8
14 15 10 13 16 18 16 13 14 14 11 13 14 12 8 10 9 14 10 10 14 14 16 17 16 17 18 17 17 12 11 13 19 10 10 10 9 9 8 8 8 8 8 8
12 16 17 16 15 14 15 16 14 13 13 13 11 8 10 8 13 14 10 11 11 12 14 16 16 18 18 17 15 13 12 12 11 11 10 10 9 9 9 8 8 8 7 8
8 10 13 15 17 17 17 14 13 13 12 10 5 9 9 12 13 10 9 12 13 14 15 16 25 23 19 19 17 12 12 13 11 10 10 13 10 9 9 9 9 8 8 8
9 7 11 11 11 14 15 14 12 10 9 6 6 7 12 15 11 9 12 15 13 9 14 18 21 18 18 21 21 12 13 14 13 11 10 10 10 9 8 10 9 8 8 8
8 12 14 11 9 9 12 11 10 11 7 6 7 12 10 10 8 10 11 9 9 12 16 25 16 13 13 17 16 12 13 13 12 12 11 10 10 9 9 9 9 8 8 8
8 11 13 11 10 10 5 7 9 8 6 4 8 6 9 8 8 9 9 9 7 20 14 13 13 20 16 24 12 13 13 13 11 10 10 10 10 10 9 9 9 8 8 8
6 7 9 7 8 10 7 3 7 8 10 11 9 7 9 4 5 7 8 7 11 16 13 12 19 27 29 14 11 12 14 13 12 11 10 10 10 10 9 10 9 9 9 8
9 5 6 8 4 5 8 6 3 6 9 8 7 9 7 4 3 3 2 14 20 19 12 13 22 29 27 12 12 12 12 12 11 10 10 13 9 9 9 9 9 8 8 9
7 7 4 4 5 4 6 8 6 3 3 3 4 7 4 1 3 4 6 9 21 16 11 24 30 30 12 11 11 12 11 11 11 10 11 10 10 9 9 9 9 9 8 8
6 5 4 5 4 3 2 3 4 4 2 2 3 3 3 3 2 5 7 11 14 14 11 14 15 16 11 11 12 12 11 11 12 10 11 10 10 9 9 9 9 9 9 8
5 5 3 3 3 4 4 5 4 4 5 2 4 3 6 4 4 5 9 11 11 10 11 12 13 13 12 11 11 10 10 10 12 11 9 9 9 9 9 9 9 9 9 9
Wind_Direction
278 278 172 232 271 269 278 273 240 320 314 290 305 298 291 272 194 182 190 189 190 185 186 186 173 162 153 138 138 139 122 110 104 103 97 96 87 78 62 49 47 73 82 82
268 275 269 255 237 242 245 267 246 257 280 255 267 284 279 261 224 218 206 203 198 194 188 184 177 167 159 149 143 142 123 116 118 105 99 96 87 77 73 58 49 71 76 84
255 242 258 262 241 236 231 230 226 224 232 272 283 282 274 283 216 227 217 206 200 198 194 184 178 166 164 155 145 141 128 122 119 111 104 96 92 80 74 71 65 60 71 80
240 201 238 255 258 241 245 243 229 239 249 260 266 279 285 316 308 291 251 215 206 195 193 183 169 167 154 151 146 146 134 127 126 118 108 99 94 89 79 77 78 78 75 78
217 212 314 301 288 262 168 235 226 232 233 327 301 242 117 44 359 321 301 278 217 191 182 171 165 160 154 154 145 152 143 135 133 126 116 107 95 92 83 88 82 84 93 99
155 183 214 234 146 60 319 204 69 69 24 340 316 185 200 351 338 326 319 301 185 175 173 168 162 155 155 158 153 162 149 140 129 127 122 117 114 105 94 96 93 93 91 96
187 212 266 257 224 211 184 155 209 177 314 347 324 290 310 311 319 320 316 301 169 166 174 171 157 156 158 159 165 157 139 133 128 124 125 125 116 117 114 106 103 98 93 88
143 178 247 198 118 179 214 164 183 231 230 276 275 290 306 312 309 317 321 276 167 169 177 166 160 160 162 164 152 146 138 133 129 126 132 129 123 119 116 115 110 106 106 97
186 213 225 170 156 192 204 281 198 243 299 281 288 320 316 306 310 313 319 262 181 169 176 171 167 166 162 160 146 145 138 135 132 127 133 135 131 130 122 125 125 122 119 115
139 240 238 239 203 224 230 211 257 273 273 290 285 294 301 295 298 311 318 243 183 167 177 173 172 168 160 153 148 147 140 138 133 134 134 134 137 141 142 144 136 135 131 123
259 299 333 249 223 232 263 259 188 240 261 261 292 293 287 288 293 305 303 251 189 179 181 182 170 164 157 153 150 149 142 140 137 139 144 147 152 156 154 150 153 148 142 141
235 184 210 244 236 198 231 254 244 214 268 258 265 273 270 272 276 291 288 228 195 186 180 181 173 162 159 156 154 149 143 143 147 140 151 151 148 132 131 144 140 124 144 145
237 186 213 239 240 208 241 260 266 249 236 263 270 264 274 281 282 286 277 240 204 189 180 178 174 165 161 161 156 154 148 148 143 142 157 152 151 150 141 138 139 151 153 147
245 116 264 250 253 231 238 253 263 265 248 244 254 264 271 285 280 269 272 266 205 184 178 176 173 170 165 161 159 151 147 150 144 151 157 156 158 155 142 146 144 143 156 153
255 221 243 257 260 250 240 245 249 255 251 256 248 237 264 255 272 271 280 248 186 180 177 176 173 170 167 161 159 151 146 148 146 152 157 159 147 148 147 148 144 144 144 154
242 228 234 243 255 254 250 245 238 247 238 250 256 252 243 250 255 282 270 195 179 187 178 179 176 167 165 163 158 151 148 148 152 151 155 154 151 152 155 154 153 155 159 163
259 262 234 240 240 250 247 243 236 239 237 240 243 244 237 250 282 275 236 192 193 189 177 178 176 163 165 163 162 153 148 150 153 153 159 159 159 162 160 160 163 166 168 170
261 259 258 251 247 242 243 238 237 234 232 240 235 246 259 272 273 261 221 185 181 174 175 176 162 161 162 163 161 152 151 152 157 160 156 158 164 160 161 164 168 168 168 172
286 276 274 262 248 240 240 236 227 225 229 223 207 260 279 273 273 246 182 174 176 167 179 168 161 160 160 165 156 152 152 151 155 155 158 156 158 161 163 167 169 172 168 164
288 292 300 300 263 235 233 231 231 225 221 194 234 277 262 266 247 195 178 187 184 173 165 157 162 162 159 160 155 156 153 154 155 155 157 160 161 164 166 167 167 168 170 173
317 340 320 307 304 252 225 221 211 219 222 170 243 242 262 264 210 177 173 177 174 156 161 159 163 158 158 156 155 156 153 153 157 159 161 162 157 163 166 166 169 168 172 174
319 324 305 315 315 309 249 201 205 202 177 236 241 249 275 241 196 184 183 179 148 156 159 164 161 161 161 160 159 158 153 155 155 156 156 159 162 166 168 168 171 172 172 171
281 281 288 307 337 325 321 196 199 197 183 201 229 256 262 217 168 172 186 164 156 165 165 166 163 160 161 158 162 158 153 155 158 162 161 163 165 166 167 169 172 170 168 165
303 287 299 315 328 6 359 344 336 201 182 184 220 259 242 188 192 181 144 170 160 163 166 161 160 158 159 154 161 158 154 155 158 158 157 161 160 160 162 164 169 166 163 160
298 306 291 325 348 355 340 335 336 0 211 199 283 275 301 335 193 183 166 168 166 161 160 160 158 159 157 157 160 159 155 157 158 156 159 161 162 164 162 163 166 163 162 159
308 303 315 314 303 318 325 325 322 322 325 157 237 281 294 264 185 169 164 160 167 146 148 156 158 161 153 158 160 159 154 152 154 159 160 161 160 159 160 157 158 162 158 154
292 312 327 336 318 324 337 345 336 340 344 342 261 226 233 190 149 160 158 156 153 141 149 155 161 158 154 156 156 155 154 154 158 156 159 157 157 158 158 158 155 152 148 152